Myrtle Beach, SC

4:43 PM EST on February 14, 2016 (GMT -0500)
Myrtle Beach International

Weather History for KMYR - February, 2013

Change the Weather History Date:

Wednesday, February 13, 2013

  Actual Average Record
Temperature  
Mean Temperature 57 °F -  
Max Temperature 66 °F 56 °F 73 °F (1949)
Min Temperature 48 °F 37 °F 18 °F (1955)
Degree Days  
Heating Degree Days 8    
Growing Degree Days 7 (Base 50)    
Moisture  
Dew Point 49 °F    
Average Humidity 90    
Maximum Humidity 100    
Minimum Humidity 59    
Precipitation  
Precipitation 0.17 in - - ()
Sea Level Pressure  
Sea Level Pressure 29.81 in    
Wind  
Wind Speed 9 mph (NE)    
Max Wind Speed 16 mph    
Max Gust Speed 29 mph    
Visibility 8 miles    
Events Rain    
Averages and records for this station are not official NWS values.
T = Trace of Precipitation, MM = Missing Value Source: NWS Daily Summary

Daily Weather History Graph

Daily Weather History Graph

Search for Another Location

Airport or City:

Trip Planner

Search our weather history database for the weather conditions in past years. The results will help you decide how hot, cold, wet, or windy it might be!

Date:

Astronomy

Feb. 13, 2013 Rise Set
Actual Time 7:01 AM EST 5:58 PM EST
Civil Twilight 6:36 AM EST 6:24 PM EST
Nautical Twilight 6:06 AM EST 6:53 PM EST
Astronomical Twilight 5:37 AM EST 7:22 PM EST
Moon 8:43 AM EST (2/13) 9:44 PM EST (2/13)
Length of Visible Light 11h 47m
Length of Day
10h 56m
Waxing Crescent, 13% of the Moon is Illuminated
Feb 13
Waxing Crescent
Feb 17
First Quarter
Feb 25
Full
Mar 4
Last Quarter
Mar 11
New

Hourly Weather History & Observations

Time (EST) Temp. Dew Point Humidity Pressure Visibility Wind Dir Wind Speed Gust Speed Precip Events Conditions
12:15 AM 48.2 °F 46.4 °F 93% 29.93 in 10.0 mi NE 6.9 mph - 0.02 in   Mostly Cloudy
12:35 AM 50.0 °F 48.2 °F 94% 29.93 in 10.0 mi ENE 8.1 mph - 0.02 in   Mostly Cloudy
12:55 AM 48.2 °F 48.2 °F 100% 29.90 in 10.0 mi NE 8.1 mph - 0.05 in   Overcast
1:15 AM 48.2 °F 48.2 °F 100% 29.90 in 10.0 mi ENE 5.8 mph - 0.01 in   Overcast
1:35 AM 48.2 °F 48.2 °F 100% 29.89 in 8.0 mi NE 9.2 mph - 0.04 in   Overcast
1:55 AM 48.2 °F 48.2 °F 100% 29.88 in 10.0 mi ENE 8.1 mph - 0.06 in   Overcast
2:15 AM 48.2 °F 48.2 °F 100% 29.89 in 10.0 mi NE 11.5 mph - N/A   Overcast
2:35 AM 48.2 °F 46.4 °F 93% 29.88 in 10.0 mi NE 6.9 mph - N/A   Overcast
2:55 AM 48.2 °F 48.2 °F 100% 29.87 in 10.0 mi NE 9.2 mph - 0.01 in   Overcast
3:15 AM 48.2 °F 46.4 °F 93% 29.84 in 10.0 mi ENE 11.5 mph 16.1 mph N/A   Overcast
3:35 AM 48.2 °F 46.4 °F 93% 29.82 in 7.0 mi East 12.7 mph 16.1 mph 0.01 in   Overcast
3:55 AM 48.2 °F 46.4 °F 93% 29.82 in 10.0 mi East 9.2 mph - 0.01 in   Overcast
4:15 AM 48.2 °F 46.4 °F 93% 29.82 in 10.0 mi SSW 5.8 mph - N/A   Overcast
4:35 AM 48.2 °F 46.4 °F 93% 29.80 in 10.0 mi ENE 10.4 mph - 0.01 in   Overcast
4:55 AM 48.2 °F 48.2 °F 100% 29.80 in 10.0 mi ENE 8.1 mph - 0.01 in   Overcast
5:15 AM 48.2 °F 48.2 °F 100% 29.78 in 10.0 mi East 9.2 mph - 0.03 in   Overcast
5:35 AM 48.2 °F 48.2 °F 100% 29.78 in 10.0 mi East 6.9 mph - 0.03 in   Overcast
5:55 AM 50.0 °F 48.2 °F 94% 29.78 in 10.0 mi ENE 9.2 mph - 0.03 in   Overcast
6:49 AM 51.8 °F 51.8 °F 100% 29.80 in 3.0 mi NNE 10.4 mph - N/A Rain Light Rain
7:50 AM 51.8 °F 51.8 °F 100% 29.78 in 2.0 mi NNE 8.1 mph - N/A   Overcast
8:45 AM 51.8 °F 50.0 °F 94% 29.79 in 3.0 mi North 11.5 mph - N/A   Overcast
9:16 AM 50.0 °F 48.2 °F 94% 29.80 in 1.8 mi NNW 10.4 mph - N/A   Overcast
9:45 AM 50.0 °F 48.2 °F 94% 29.80 in 1.8 mi NNW 8.1 mph - N/A   Overcast
10:18 AM 51.8 °F 50.0 °F 94% 29.77 in 2.5 mi Calm Calm - N/A   Overcast
10:45 AM 51.8 °F 50.0 °F 94% 29.77 in 1.8 mi NW 4.6 mph - N/A   Overcast
11:15 AM 55.4 °F 53.6 °F 94% 29.76 in 2.0 mi South 9.2 mph - N/A   Overcast
11:50 AM 55.4 °F 53.6 °F 94% 29.75 in 3.0 mi South 9.2 mph - N/A   Overcast
12:45 PM 57.2 °F 55.4 °F 94% 29.72 in 3.0 mi South 9.2 mph - N/A   Overcast
1:45 PM 57.2 °F 55.4 °F 94% 29.69 in 3.0 mi South 10.4 mph - N/A   Overcast
3:50 PM 66.2 °F 51.8 °F 60% 29.71 in 10.0 mi West 13.8 mph 28.8 mph N/A   Clear
4:45 PM 64.4 °F 51.8 °F 64% 29.71 in 10.0 mi West 13.8 mph 21.9 mph N/A   Clear
5:45 PM 62.6 °F 48.2 °F 59% 29.74 in 10.0 mi West 15.0 mph 23.0 mph N/A   Overcast
6:45 PM 60.8 °F 46.4 °F 59% 29.77 in 10.0 mi WSW 15.0 mph 23.0 mph N/A   Overcast
7:55 PM 57.2 °F 48.2 °F 72% 29.77 in 10.0 mi South 16.1 mph - N/A   Overcast
8:45 PM 53.6 °F 48.2 °F 82% 29.82 in 10.0 mi WNW 13.8 mph - N/A   Mostly Cloudy
10:55 PM 51.8 °F 46.4 °F 82% 29.83 in 10.0 mi West 10.4 mph - N/A   Clear
11:15 PM 51.8 °F 48.2 °F 88% 29.84 in 10.0 mi WSW 9.2 mph - N/A   Clear
11:35 PM 51.8 °F 46.4 °F 82% 29.84 in 10.0 mi West 11.5 mph - N/A   Clear
11:55 PM 51.8 °F 46.4 °F 82% 29.85 in 10.0 mi West 11.5 mph - N/A   Clear